FENGYUN 1C DEB

Satellite information

Favourite Embed

Satellite Type and Status

DEBRISIN ORBIT

Key statistics

Satellite FENGYUN 1C DEB at a glance.

Uptime

9658

Days in orbit

Revolutions

≈ 14.1

Per day

Orbit

SSO

Sun Synchronous Orbit

Inclination

98.2

Latest

Satellite identification and parameters

Extended collection of information and parameters for FENGYUN 1C DEB.

Object identification

Identified? True

Debris? True

Object name: FENGYUN 1C DEB

International designator: 1999-025BYM

Object number (NORAD): 31546

Object ID (CCSDS): 31546

Country: PEOPLES REPUBLIC OF CHINA (PRC)

Current information (Y/N): Y

RCS size: SMALL

Orbital parameters

Period: 101.948 minutes

Inclination: 98.247 deg

SMA: 7229.038 km

Apoapsis: 955.266 km

Periapsis: 746.54 km

RAAN: 2.9659 deg

Eccentricy: 0.0144366

Argument of periapsis: 303.0225 deg

Mean anomaly: 55.7147 deg

Mean motion: 14.12478935 rev/day

Mean motion (dot): 0.00003934 rev/day2

B* drag term: 0.0019492 1/REarth

Two-line elements (TLE)

Creation date: Oct. 16, 2025, 7:46 a.m.

Reference frame: TEME

Reference center: EARTH

Epoch: Oct. 15, 2025, 9:58 p.m. UTC

TLE line 0: 0 FENGYUN 1C DEB

TLE line 1: 1 31546U 99025BYM 25288.91562376 .00003934 00000-0 19492-2 0 9994

TLE line 2: 2 31546 98.2470 2.9659 0144366 303.0225 55.7147 14.12478935939724

Live tracking on map

Real-time ground track for satellite FENGYUN 1C DEB.

In-orbit conjunctions

A list of the most updated potential collisions computed for object FENGYUN 1C DEB.

Target Orbit TCA Probability of collision Miss distance Type
RESURS O1-N4 SSO 2025-03-07 13:16:15 0.0001970534 125.0 (m) PAYLOAD
CZ-6A DEB LEO 2025-02-26 21:07:04 0.0001997343 573.0 (m) DEBRIS
COSMOS 1275 DEB LEO 2024-07-08 17:03:15 0.0001621599 134.0 (m) DEBRIS

Associated space launch

Chinese polar orbiting meteorological satellite

FENGYUN 1C DEB was lifted into orbit during the mission ‘Long March 4B | Feng Yun 1C’, on board a Long March 4B space rocket.

The launch took place on May 10, 1999, 1:33 a.m. from Launch Complex 7.

For more information about the launch, click the button.

Launch to space Long March 4B | Feng Yun 1C
Long March 4B | Feng Yun 1C

Agency: N/A

Status: Launch Successful

Launch date: May 10, 1999, 1:33 a.m. UTC

Rocket: Long March 4B

Launch pad: Launch Complex 7

Location: Taiyuan Satellite Launch Center, People's Republic of China

...

Latest news about this satellite

There are no fresh news available about this satellite. Check back as we update our databases every day.


Newsletter sign-up

Weekly statistics, charts and insights to help you stay on top of the space industry.